Location: Cactus School
(34.5700°N, 118.0931°W)
Time: 02:28:54
(UTC-07:00)

SRMSAT - Visible Passes

Search period start: 26 May 2024 00:00
Search period end: 05 June 2024 00:00
Orbit: 847 x 864 km, 20.0° (Epoch: 25 May)

Date Brightness Start Highest point End Pass type
(mag) Time Alt. Az. Time Alt. Az. Time Alt. Az.
30 May ? 05:10:44 10° S 05:12:59 12° SSE 05:15:13 10° SE visible
31 May ? 04:56:42 10° SSW 04:59:23 13° SSE 05:02:04 10° SE visible
01 Jun ? 04:42:47 10° SSW 04:45:48 14° SSE 04:48:49 10° SE visible
02 Jun ? 04:29:37 12° SSW 04:32:13 15° S 04:35:30 10° SE visible
03 Jun ? 04:16:51 14° S 04:18:37 16° S 04:22:07 10° SE visible
04 Jun ? 04:04:05 16° S 04:05:02 17° S 04:08:42 10° SE visible
